AMAZONAS NEXUS

Last updated on Thu Mar 05 2026 00:03:00 GMT+0000 (Coordinated Universal Time)

1 55508U 23017A 26063.15017037 -.00000295 00000+0 00000+0 0 9992 2 55508 0.0414 44.7348 0004450 317.0979 153.1232 1.00275833 5992
UTC large
Height (km)
Speed (km/s)
/
Latitude / Longitude
Inclination (degrees)
Orbital Period (minutes)
Azimuth
Elevation
Range (km)
Doppler Factor

Next 0 passes for location: London (51.5072 / 0.1276)

Sorry there are no passes over London.